PROFILE

 METAR AND TAF INFORMATION
ADDS - METARS form results

(0144 UTC 20 February 2020)
http://aviationweather.gov/metar/data/
 
LLBG 200120Z VRB03KT 7000 SCT030 SCT040 13/12 Q1017 NOSIG
LLBG 200050Z 15005KT 6000 SCT030 13/12 Q1017 TEMPO 5000 RA BR FEW020TCU RMK SCT070
TAF LLBG 192306Z 2000/2024 VRB04KT 8000 SCT025 TEMPO 2000/2007 6000 -RA SCT015 BKN020 BECMG 2007/2009 26012KT SCT035 PROB30 2009/2013 9000 -RA BKN025 BECMG 2015/2018 16005KT TX18/2012Z TN11/2004Z 

 AIRPORT MAP

 RUNWAY INFORMATION
Runway 03 Runway length 9094 ft Runway width 148 ft
Runway elevation 129 ft Runway displaced threshold 0 ft Runway heading 29
Runway 21 Runway length 9094 ft Runway width 148 ft
Runway elevation 134 ft Runway displaced threshold 0 ft Runway heading 209
Runway 08 Runway length 13327 ft Runway width 148 ft
Runway elevation 97 ft Runway displaced threshold 0 ft Runway heading 80
Runway 26 Runway length 13327 ft Runway width 148 ft
Runway elevation 124 ft Runway displaced threshold 1969 ft Runway heading 260
Runway 12 Runway length 10209 ft Runway width 148 ft
Runway elevation 112 ft Runway displaced threshold 0 ft Runway heading 121
Runway 30 Runway length 10209 ft Runway width 148 ft
Runway elevation 130 ft Runway displaced threshold 246 ft Runway heading 301

 AIRPORT FREQUENCIES
Type APP Name Ben Gurion Frequency 120.5 MHZ
Type ATIS Name ATIS Frequency 132.5 MHZ
Type CLD Name CLNC DEL Frequency 119.35 MHZ
Type GND Name GND WEST Frequency 118.05 MHZ
Type GND Name GND EAST Frequency 129.2 MHZ
Type MISC Name VOLMET Frequency 126.8 MHZ
Type TMA Name Ben Gurion Frequency 119.5 MHZ
Type TWR Name Ben Gurion Frequency 132.1 MHZ
Type TWR Name Ben Gurion Frequency 134.6 MHZ

 AIRPORT NEAR NAVIGATION AIDS
Type VOR-DME Name Ben Gurion Frequency 113500 KHZ
Type NDB Name Tel Aviv Frequency 331 KHZ